Tracking 29594 objects as of 20-Sep-2024
HD Live streaming from Space Station
objects crossing your sky now

FENGYUN 1C DEB

Track FENGYUN 1C DEB now!
10-day predictions


NORAD ID: 30599
Int'l Code: 1999-025AME
Perigee: 618.7 km
Apogee: 1,070.3 km
Inclination: 98.6 °
Period: 101.7 minutes
Semi major axis: 7215 km
RCS: 0.0171 m2 (small)
Launch date: May 10, 1999
Source: People's Republic of China (PRC)
Launch site: Taiyaun Space Center, China (TSC)

Note: This is SATELLITE DEBRIS
Your satellite tracking list
Your tracking list is empty




NASA's NSSDC Master Catalog

Two Line Element Set (TLE):
1 30599U 99025AME 24262.82362905  .00002837  00000-0  89812-3 0  9993
2 30599  98.6280 280.7244 0312919 203.0997 155.5850 14.16461921907890
Source of the keplerian elements: AFSPC